Location: Del Amo
(33.8464°N, 118.2104°W)
Time: 14:44:03
(UTC+00:00)

Tiros 1 despin weight - Visible Passes

Search period start: 13 September 2024 00:00
Search period end: 23 September 2024 00:00
Orbit: 573 x 617 km, 48.2° (Epoch: 12 September)

Date Brightness Start Highest point End Pass type
(mag) Time Alt. Az. Time Alt. Az. Time Alt. Az.
13 Sep ? 11:35:39 50° NNW 11:35:39 50° NNW 11:39:41 10° NE visible
14 Sep ? 11:44:25 32° NNW 11:44:26 32° NNW 11:48:32 10° NE visible
15 Sep ? 10:16:31 11° NE 10:16:31 11° NE 10:16:44 10° NE visible
15 Sep ? 11:53:06 22° NW 11:53:40 23° NNW 11:57:18 10° NNE visible
16 Sep ? 10:25:08 13° NE 10:25:08 13° NE 10:25:38 10° NE visible
16 Sep ? 12:01:42 16° NW 12:02:58 17° NNW 12:06:02 10° NNE visible
17 Sep ? 10:33:41 14° NNE 10:33:41 14° NNE 10:34:23 10° NE visible
17 Sep ? 12:10:15 11° NW 12:12:19 14° N 12:14:49 10° NNE visible
18 Sep ? 10:42:10 14° NNE 10:42:10 14° NNE 10:43:02 10° NNE visible
18 Sep ? 12:19:30 10° NNW 12:21:39 13° N 12:23:47 10° NNE visible
19 Sep ? 10:50:37 14° NNE 10:50:37 14° NNE 10:51:38 10° NNE visible
19 Sep ? 12:28:50 10° NNW 12:30:58 13° N 12:33:07 10° NNE visible
20 Sep ? 10:59:03 13° N 10:59:03 13° N 11:00:16 10° NNE visible
20 Sep ? 12:37:42 10° NNW 12:40:14 14° N 12:42:45 10° NE visible
21 Sep ? 11:07:28 13° N 11:07:28 13° N 11:09:04 10° NNE visible
21 Sep ? 12:46:19 10° NNW 12:49:24 18° NNE 12:52:28 10° ENE visible
22 Sep ? 11:15:53 13° N 11:16:06 13° N 11:18:12 10° NNE visible
22 Sep ? 12:54:48 10° NNW 12:58:26 23° NNE 13:02:04 10° ENE visible
